GW5568 Weather Reports


time (UTC)temp
F
wind
direction
speed
knots
gust
knots
rain 1hr
in
rain 24hr
in
rain mn
in
humidity
%
barometer
mb
20260506124553 56 0 0.0 0.9 0.00 0.00 0.00 88 1019.3
20260506123053 57 0 0.0 0.0 0.00 0.00 0.00 86 1019.4
20260506121555 57 0 0.0 0.0 0.00 0.00 0.00 87 1019.3
20260506114555 57 0 0.0 0.9 0.00 0.00 0.00 87 1019.0
20260506113105 57 0 0.0 0.9 0.00 0.00 0.00 86 1018.7
20260506111551 57 0 0.0 0.9 0.00 0.00 0.00 85 1018.5
20260506104613 58 0 0.0 0.0 0.00 0.00 0.00 86 1018.0
20260506103054 58 0 0.0 0.9 0.00 0.00 0.00 86 1018.0
20260506101559 58 0 0.0 0.0 0.00 0.00 0.00 86 1017.9
20260506100051 58 0 0.0 0.0 0.00 0.00 0.00 86 1017.8
20260506094557 59 0 0.0 0.0 0.00 0.00 0.00 85 1017.7
20260506093100 59 0 0.0 0.0 0.00 0.00 0.00 86 1017.6
20260506091553 59 0 0.0 0.0 0.00 0.00 0.00 86 1017.5
20260506090052 59 0 0.0 0.9 0.00 0.00 0.00 86 1017.4
20260506084552 59 293 0.0 0.0 0.00 0.00 0.00 86 1017.3
20260506083053 60 0 0.0 0.0 0.00 0.00 0.00 85 1017.4
20260506081553 60 0 0.0 0.0 0.00 0.00 0.00 85 1017.4
20260506073052 60 0 0.0 0.0 0.00 0.00 0.00 85 1017.1
20260506071607 60 0 0.0 0.0 0.00 0.00 0.00 85 1017.0
20260506061556 61 0 0.0 0.9 0.00 0.00 0.00 83 1016.7
20260506044559 62 0 0.0 0.0 0.00 0.00 0.00 81 1016.2
20260506043051 61 0 0.0 0.9 0.00 0.00 0.00 80 1016.1
20260506041604 62 0 0.0 0.9 0.00 0.00 0.00 80 1016.0
20260506040057 62 0 0.0 0.0 0.00 0.00 0.00 79 1015.7
20260506034556 62 0 0.0 0.9 0.00 0.00 0.00 78 1015.6
20260506033105 62 0 0.0 0.0 0.00 0.00 0.00 76 1015.5
20260506031557 63 0 0.0 0.0 0.00 0.00 0.00 76 1015.3
20260506030052 63 0 0.0 0.9 0.00 0.00 0.00 75 1015.1
20260506024556 64 0 0.0 0.0 0.00 0.00 0.00 72 1015.0
20260506023057 65 0 0.0 0.0 0.00 0.00 0.00 71 1015.0
20260506021556 65 0 0.0 0.0 0.00 0.00 0.00 71 1015.0
20260506020100 65 0 0.0 0.0 0.00 0.00 0.00 71 1015.0
20260506014604 65 0 0.0 0.0 0.00 0.00 0.00 70 1014.9
20260506013054 65 0 0.0 0.0 0.00 0.00 0.00 71 1014.9
20260506011556 65 0 0.0 0.0 0.00 0.00 0.00 72 1014.9
20260506010055 65 0 0.0 0.0 0.00 0.00 0.00 71 1014.9
20260506004559 65 0 0.0 0.0 0.00 0.00 0.00 70 1014.9
20260506003052 67 0 0.0 0.0 0.00 0.00 0.00 68 1015.0
20260506001609 66 0 0.0 0.0 0.00 0.00 0.00 69 1015.0
20260506000100 66 0 0.0 0.0 0.00 0.00 0.00 69 1015.2
20260505234559 65 0 0.0 0.0 0.00 0.00 0.00 69 1015.4
20260505233058 65 0 0.0 0.0 0.00 0.00 0.00 70 1015.4
20260505231555 65 0 0.0 0.0 0.00 0.00 0.00 70 1015.5
20260505230105 64 0 0.0 0.0 0.00 0.00 0.00 71 1015.6
20260505224552 64 0 0.0 0.9 0.00 0.00 0.00 72 1015.8
20260505223057 64 0 0.0 0.0 0.00 0.00 0.00 73 1015.9
20260505221554 64 0 0.0 0.0 0.00 0.00 0.00 73 1016.1
20260505220053 64 0 0.0 0.0 0.00 0.00 0.00 72 1016.2
20260505214605 64 0 0.0 0.0 0.00 0.00 0.00 71 1016.1
20260505213100 64 0 0.0 0.0 0.00 0.00 0.00 72 1016.2
20260505211602 64 0 0.0 0.0 0.00 0.00 0.00 71 1016.2
20260505210104 64 0 0.0 0.9 0.00 0.00 0.00 71 1016.4
20260505204555 64 0 0.0 0.0 0.00 0.00 0.00 71 1016.4
20260505203054 63 0 0.0 0.9 0.00 0.00 0.00 72 1016.5
20260505201604 63 0 0.0 0.0 0.00 0.00 0.00 73 1016.6
20260505200058 63 0 0.0 0.0 0.00 0.00 0.00 74 1016.6
20260505194601 63 0 0.0 0.0 0.00 0.00 0.00 73 1016.6
20260505193058 63 0 0.0 0.0 0.00 0.00 0.00 74 1016.6
20260505191605 62 0 0.0 0.0 0.00 0.00 0.00 74 1016.6
20260505190116 62 0 0.0 0.9 0.00 0.00 0.00 75 1016.7
20260505184605 61 0 0.0 0.0 0.00 0.00 0.00 76 1016.6
20260505183057 60 0 0.0 0.0 0.00 0.00 0.00 78 1016.6
20260505181558 59 0 0.0 0.0 0.00 0.00 0.00 80 1016.6
20260505180058 59 0 0.0 0.9 0.00 0.00 0.00 80 1016.6
20260505174552 59 0 0.0 0.0 0.00 0.00 0.00 81 1016.6
20260505173053 58 0 0.0 0.0 0.00 0.00 0.00 81 1016.5
20260505171557 57 0 0.0 0.0 0.00 0.00 0.00 83 1016.4
20260505170105 57 0 0.0 0.0 0.00 0.00 0.00 83 1016.5
20260505164551 57 0 0.0 0.0 0.00 0.00 0.00 84 1016.3
20260505163058 56 0 0.0 0.0 0.00 0.00 0.00 85 1016.3
20260505161551 56 0 0.0 0.0 0.00 0.00 0.00 87 1016.2
20260505153107 55 0 0.0 0.0 0.00 0.00 0.00 88 1016.2
20260505151557 55 0 0.0 0.0 0.00 0.00 0.00 88 1016.1
20260505150114 55 0 0.0 0.0 0.00 0.00 0.00 87 1016.0
20260505140105 55 0 0.0 0.0 0.00 0.00 0.00 86 1015.6